Probability
10 4 0 0 0 0 0 0 0 0 0 0 0 0 0 0 0 0 0 0 0 0 0 0 0 0 0 0 0 0 0 0 0 0 0 0 0 0 0 0 0 0 0 0 0 0 0 0 0
6 3 1 0 0 0 0 0 0 0 0 0 0 0 0 0 0 0 0 0 0 0 0 0 0 0 0 0 0 0 0 0 0 0 0 0 0 0 0 0 0 0 0 0 0 0 0 0 0
2 2 1 0 0 0 0 0 0 0 0 0 0 0 0 0 0 0 0 0 0 0 0 0 0 0 0 0 0 0 0 0 0 0 0 0 0 0 0 0 0 0 0 0 0 0 0 0 0
1 1 0 0 0 0 0 0 0 0 0 0 0 0 0 0 0 0 0 0 0 0 0 0 0 0 0 0 0 0 0 0 0 0 0 0 0 0 0 0 0 0 0 0 0 0 0 0 0
0 0 0 0 0 0 0 0 0 0 0 0 0 0 0 0 0 0 0 0 0 0 0 0 0 0 0 0 0 0 0 0 0 0 0 0 0 0 0 0 0 0 0 0 0 0 0 0 0
0 0 0 0 0 0 0 0 0 0 0 0 0 0 0 0 0 0 0 0 0 0 1 1 1 0 0 1 1 0 0 0 0 0 0 0 0 0 0 0 0 0 0 0 0 0 0 0 0
0 0 0 0 0 0 0 0 0 0 0 0 0 0 0 1 0 0 1 1 0 0 1 1 1 0 0 1 1 0 0 0 0 1 1 0 0 0 0 0 0 0 0 0 0 0 0 0 0
0 0 0 0 0 0 0 0 0 0 0 0 0 0 0 0 0 0 1 1 0 0 1 1 0 0 0 0 1 1 0 0 0 1 1 1 0 0 0 0 0 0 0 0 0 0 0 0 0
0 0 0 0 0 0 0 0 0 0 0 0 0 0 0 0 0 0 1 1 0 0 0 0 0 0 0 0 0 1 1 0 1 2 1 1 1 0 0 0 0 0 0 0 0 0 0 0 0
0 0 0 0 0 0 0 0 0 0 0 0 0 0 0 0 0 0 0 0 0 0 0 0 0 0 0 0 0 1 2 2 2 3 2 2 2 1 1 0 0 0 0 0 0 0 0 0 0
0 0 0 0 0 0 0 0 0 0 0 0 0 0 0 0 0 0 0 0 0 0 0 0 0 0 0 0 0 2 4 4 3 3 3 3 3 3 2 1 0 0 0 0 0 0 0 0 0
0 0 0 0 0 0 0 0 0 0 0 0 0 0 0 0 0 0 0 0 0 0 0 0 0 0 0 0 0 2 5 5 4 4 4 3 3 3 2 1 0 0 1 0 0 0 0 0 0
0 0 0 0 0 0 0 0 0 0 0 0 0 0 0 0 0 0 0 0 0 0 0 0 0 0 0 0 0 1 4 5 6 6 5 3 2 2 2 1 1 0 0 0 0 0 0 0 0
1 1 0 0 0 0 0 0 0 0 1 1 1 0 0 0 0 0 0 0 0 0 0 0 0 0 0 0 0 1 2 4 6 8 8 6 3 2 3 2 1 0 0 0 0 0 0 0 0
0 0 0 0 0 0 0 0 0 1 2 2 2 1 1 1 0 0 0 0 0 0 0 0 0 0 0 0 0 1 2 2 4 7 9 7 4 3 3 1 1 0 0 0 0 0 0 0 0
0 0 0 0 0 0 0 0 0 1 2 3 2 2 2 1 0 0 0 0 0 0 0 0 0 0 0 0 0 1 1 1 1 3 5 5 4 4 3 1 0 0 0 0 0 0 0 0 0
0 0 0 0 0 0 0 0 0 2 2 1 1 1 1 1 0 0 0 0 0 0 0 0 0 0 0 0 0 0 0 0 0 1 2 2 3 5 5 3 1 0 0 0 0 0 0 0 0
0 0 0 0 0 0 0 0 0 1 1 1 0 0 0 0 0 0 0 0 0 0 0 0 0 0 0 0 0 0 0 0 0 0 1 2 3 5 6 5 2 0 0 0 0 0 0 0 0
0 0 0 0 0 0 0 0 0 0 0 0 0 0 0 0 0 0 0 0 0 0 0 0 0 0 0 0 0 0 0 0 0 0 0 1 1 3 4 5 3 1 1 1 0 0 0 0 0
0 0 0 0 0 0 0 0 0 0 0 0 0 0 0 0 0 0 0 0 0 0 0 0 0 0 0 0 0 0 0 0 0 0 0 0 0 1 2 4 4 2 1 1 1 0 0 0 0
0 0 0 0 0 0 0 0 0 0 0 0 0 0 0 0 0 0 0 0 0 0 0 0 0 0 0 0 0 0 0 0 0 0 0 0 0 0 1 3 4 3 1 1 1 0 0 0 0
0 0 0 0 0 0 0 0 0 0 0 0 0 0 0 0 0 0 0 0 0 0 0 0 0 0 0 0 0 0 0 0 0 0 0 0 0 0 1 2 3 3 1 1 1 0 0 0 0
0 0 0 0 0 0 0 0 0 0 0 0 0 0 0 0 0 0 0 0 0 0 0 0 0 0 0 0 0 0 0 0 0 0 0 0 0 0 0 1 2 3 2 1 0 0 0 0 0
0 0 0 0 0 0 0 0 0 0 0 0 0 0 0 0 0 0 0 0 0 0 0 0 0 0 0 0 0 0 0 0 0 0 0 0 0 0 0 1 2 2 2 1 0 0 0 0 0
0 0 0 0 0 0 0 0 0 0 0 0 0 0 0 0 0 0 0 0 0 0 0 0 0 0 0 0 0 0 0 0 0 0 0 0 0 0 1 2 1 1 1 1 0 0 1 0 0
0 0 0 0 0 0 0 0 0 0 0 0 0 0 0 0 0 0 0 0 0 0 0 0 0 0 0 0 0 0 0 0 0 0 0 0 0 0 1 2 2 0 0 0 0 0 0 0 0
0 0 0 0 0 0 0 0 0 0 0 0 0 0 0 0 0 0 0 0 0 0 0 0 0 0 0 0 0 0 0 0 0 0 0 0 0 0 1 1 1 0 0 0 0 1 1 1 0
0 0 0 0 0 0 0 0 0 0 0 0 0 0 0 0 0 0 0 0 0 0 0 0 0 0 0 0 0 0 0 0 0 0 0 0 0 0 0 0 0 0 0 0 0 1 2 2 1
0 0 0 0 0 0 0 0 0 0 0 0 0 0 0 0 0 0 0 0 0 0 0 0 0 0 0 0 0 0 0 0 0 0 0 0 0 0 0 0 0 0 0 0 0 1 2 3 3
0 0 0 0 0 0 0 0 0 0 0 0 0 0 0 0 0 0 0 0 0 0 0 0 0 0 0 0 0 0 0 0 0 0 0 0 0 0 0 0 0 0 0 0 0 0 1 3 3
Wind_Speed
6 3 2 1 4 5 4 3 3 6 6 7 11 11 9 7 5 5 1 8 11 10 7 8 9 9 9 8 8 8 8 7 7 7 7 7 7 6 6 6 6 6 6 6 6 6 6 5 5
3 2 1 2 6 4 3 3 7 6 6 7 10 10 8 7 6 5 3 8 11 10 8 8 10 9 9 8 7 7 7 7 6 6 6 6 6 5 5 5 5 5 5 5 5 5 5 5 4
2 2 2 4 4 4 2 3 7 8 8 6 6 6 6 4 4 3 5 10 10 9 7 8 11 10 9 8 7 6 6 6 6 6 6 5 5 5 5 5 4 4 4 5 4 4 4 4 3
2 3 4 5 5 3 3 2 5 6 8 8 7 7 5 4 3 4 8 10 10 8 7 8 11 10 9 8 7 7 6 6 6 6 6 6 6 6 5 5 4 4 4 4 4 4 4 3 3
3 5 6 5 5 4 4 6 9 10 6 8 9 7 4 5 6 8 8 8 8 6 6 7 10 10 9 8 7 7 7 7 7 7 7 7 7 6 6 6 5 5 5 5 4 4 4 3 3
5 5 5 4 5 4 4 6 10 11 8 7 6 5 3 4 6 5 6 6 5 5 4 4 8 9 8 8 8 8 8 8 8 8 8 8 8 8 7 7 7 6 6 6 5 5 5 4 4
5 5 3 2 2 3 2 4 8 7 7 6 3 5 2 5 4 4 6 5 4 4 3 1 2 4 6 8 9 9 10 10 10 10 10 10 9 9 9 9 9 8 8 7 7 6 6 5 5
5 5 3 2 2 2 4 4 7 8 6 5 5 5 2 3 3 5 6 5 4 3 2 1 1 2 3 5 9 10 11 12 12 12 12 12 11 11 11 10 10 10 10 9 9 8 7 7 7
5 6 2 2 3 0 4 4 6 7 7 7 6 5 2 2 4 7 6 6 5 5 2 1 1 2 3 4 7 9 11 12 12 11 13 11 6 6 7 10 12 12 12 11 11 10 9 9 7
5 4 4 4 4 4 4 5 5 5 7 6 6 6 5 6 8 8 7 6 5 5 4 2 2 2 3 3 3 3 5 5 6 5 6 5 5 5 8 9 15 15 14 13 12 12 10 7 3
5 4 3 3 5 6 5 6 5 5 5 3 3 4 5 7 7 7 6 5 5 4 5 5 4 4 3 3 3 2 2 3 4 5 5 5 4 4 5 4 7 9 11 7 7 7 5 4 3
6 3 4 4 5 4 5 4 5 4 2 2 2 3 5 7 6 5 5 5 5 5 5 5 4 4 4 3 3 2 2 2 3 4 5 4 3 4 4 4 4 4 4 5 4 4 5 5 5
6 5 7 9 12 9 9 7 5 2 2 2 4 6 6 6 5 5 5 5 6 6 6 6 5 5 4 3 3 3 3 3 4 3 4 4 4 4 5 4 4 4 4 5 5 5 5 6 6
6 9 9 8 9 6 9 4 4 0 2 4 5 5 5 5 5 6 7 7 6 6 7 7 6 6 5 4 4 3 3 3 3 3 4 4 4 4 4 4 4 5 5 5 6 6 6 5 5
8 8 5 3 5 5 7 5 1 1 4 5 4 5 6 5 6 5 5 5 5 5 6 7 6 6 6 5 5 4 3 3 3 3 4 3 3 4 4 4 4 5 5 6 5 5 4 4 5
4 5 2 3 5 5 7 3 2 1 5 5 4 5 5 4 4 4 4 4 4 5 5 6 8 7 6 6 5 4 4 4 3 3 3 3 3 3 3 3 4 5 4 4 4 3 3 3 3
2 2 3 2 3 4 5 4 4 3 7 5 5 4 4 4 4 3 4 4 4 4 5 6 6 6 6 6 5 5 4 4 4 4 3 4 4 4 3 4 4 4 4 4 5 4 3 3 3
3 3 3 3 2 5 5 4 3 3 6 5 4 4 3 3 2 2 3 4 4 4 5 5 6 6 6 5 4 4 5 4 4 4 4 5 4 4 4 4 5 4 4 4 4 4 3 3 3
2 3 3 3 4 5 5 5 4 3 4 5 3 3 2 1 2 3 4 4 4 5 5 5 5 6 5 4 4 4 5 5 5 4 5 5 4 4 4 4 4 4 5 5 6 4 4 3 2
4 5 3 0 2 4 5 2 2 2 3 4 4 3 2 2 3 3 4 4 4 4 5 5 5 6 5 4 3 3 4 4 4 5 5 5 5 4 4 4 4 4 4 5 5 5 4 3 4
4 4 4 3 1 4 5 2 1 1 1 3 3 2 1 1 1 2 3 4 4 5 5 5 5 6 6 6 4 4 4 4 4 5 4 5 5 5 4 4 4 4 4 5 6 6 7 5 3
1 1 3 4 3 2 4 2 3 2 0 1 1 1 0 0 0 2 3 4 5 5 5 5 5 6 6 6 5 5 4 4 5 5 5 6 5 5 4 4 4 5 4 5 6 6 5 6 5
3 1 1 1 2 1 1 3 4 1 2 2 2 2 1 1 1 2 3 4 4 5 5 5 6 6 6 6 6 5 5 5 5 5 6 5 5 4 4 3 3 4 4 5 5 5 6 5 6
2 5 7 6 5 2 3 5 4 4 5 3 3 3 2 1 2 3 4 4 5 5 5 5 6 6 7 7 7 6 7 7 7 7 6 5 4 4 4 3 2 3 3 4 5 5 7 6 6
6 6 5 5 4 4 1 3 5 5 5 5 5 3 2 2 2 3 4 4 5 6 6 6 6 7 8 8 7 6 7 7 6 6 5 5 4 3 4 4 2 2 3 4 4 5 6 7 7
1 7 6 3 3 4 2 1 4 3 3 4 4 3 1 2 2 3 3 3 5 6 6 6 6 6 7 7 7 6 6 5 4 5 4 4 4 4 4 4 3 3 3 3 3 4 5 5 6
1 2 6 6 1 1 2 1 3 1 1 2 3 2 1 2 2 2 3 3 4 5 6 5 6 6 7 7 7 6 7 6 6 6 5 4 4 4 4 4 3 2 2 2 2 3 4 4 5
2 3 5 3 1 2 3 3 5 6 5 4 4 3 3 2 2 2 3 3 4 4 5 5 5 5 5 6 6 6 6 7 6 5 6 6 6 5 5 5 4 3 2 1 1 2 3 4 4
1 2 4 3 4 4 3 7 6 8 7 6 6 5 4 2 2 3 3 3 3 4 4 5 5 5 5 6 6 6 7 7 6 6 6 6 6 6 5 5 4 3 3 2 0 0 1 4 4
3 3 5 3 1 3 3 7 3 7 7 7 6 5 4 3 2 2 3 3 3 4 5 4 4 4 5 5 5 6 6 7 7 7 7 6 6 6 6 5 5 4 4 3 2 1 0 2 3
Wind_Direction
180 152 115 88 54 48 50 26 69 62 53 62 72 78 76 57 79 116 160 141 139 146 151 147 143 140 137 135 132 129 129 128 127 125 124 123 120 118 116 114 112 110 106 108 105 100 96 93 88
128 142 152 57 75 66 24 24 65 77 118 107 74 72 71 61 67 90 104 144 145 149 153 151 149 146 144 143 140 137 137 136 135 134 133 132 131 130 129 128 124 119 114 113 111 110 108 100 91
133 180 82 58 78 110 85 41 80 77 68 68 73 51 55 57 64 98 160 155 147 149 154 156 155 154 154 153 153 151 150 151 152 153 152 152 150 149 149 148 143 137 133 129 125 123 123 116 106
107 47 42 62 69 50 85 74 79 76 52 43 81 64 49 33 56 120 144 153 148 152 155 163 162 164 166 166 167 169 172 174 174 174 175 174 173 173 171 169 167 159 155 152 147 146 146 141 129
66 61 47 52 52 36 48 63 70 68 64 58 75 83 54 14 68 108 128 137 142 153 163 168 167 172 177 181 184 186 190 194 195 195 196 196 196 193 190 189 189 184 175 169 168 172 175 174 173
63 64 64 57 43 20 24 46 72 72 75 66 72 88 54 16 58 93 106 111 124 140 155 170 179 181 188 195 199 202 205 208 210 211 212 211 208 205 203 201 199 199 197 191 190 194 200 201 202
105 95 91 95 81 20 22 58 56 67 55 27 25 84 60 18 34 77 89 93 95 105 121 143 198 204 210 214 214 216 217 217 218 220 221 220 219 216 214 210 207 206 205 204 204 207 213 217 219
119 98 78 52 79 12 347 54 62 51 48 24 36 71 45 335 7 56 70 69 63 62 60 32 286 257 247 238 231 229 229 227 224 223 223 225 225 225 223 219 215 212 211 212 212 214 220 226 230
84 80 112 195 166 153 354 69 66 50 65 54 55 80 95 26 49 51 48 37 32 34 26 21 325 307 290 268 253 244 240 237 233 229 228 227 225 226 229 228 223 221 218 217 217 217 223 229 235
81 110 184 192 155 134 54 52 85 64 50 43 45 50 53 49 52 51 43 31 24 16 9 10 348 320 304 295 290 273 257 251 242 232 230 224 218 221 227 231 231 227 224 221 220 222 225 229 235
85 135 155 135 144 133 96 56 44 102 54 37 61 46 46 52 50 48 39 30 16 8 4 359 357 343 331 316 310 287 280 273 261 248 236 230 225 227 230 224 235 231 227 222 222 223 220 216 221
89 66 117 124 128 104 93 99 70 71 135 168 113 82 67 58 51 46 36 23 12 14 3 358 1 1 350 344 325 313 297 280 267 260 248 232 229 226 224 219 219 215 208 204 209 211 219 220 224
110 116 98 101 94 95 98 99 105 88 159 126 93 76 70 67 56 46 40 32 21 13 360 354 1 7 360 354 334 335 313 298 285 274 262 241 232 232 231 223 214 213 203 203 210 213 217 223 227
132 125 125 121 113 107 106 101 96 154 138 104 94 83 75 69 59 45 33 25 17 9 359 354 359 6 1 353 338 326 321 314 307 291 275 255 237 232 227 222 214 212 209 209 211 214 214 219 222
114 113 108 115 115 134 106 62 64 182 111 99 96 84 74 65 57 51 37 27 16 5 1 357 358 5 353 342 335 334 317 314 306 298 288 277 256 243 236 222 213 216 213 211 213 220 215 220 223
92 99 147 191 160 162 110 117 259 128 110 92 80 76 70 58 54 44 37 30 21 12 2 355 359 354 342 336 330 322 319 317 305 299 299 289 266 249 239 233 224 213 204 203 201 212 217 224 217
94 164 209 205 182 142 119 161 218 122 104 96 88 85 79 61 40 30 33 33 21 8 356 348 345 344 339 333 324 318 317 315 307 299 294 286 274 252 234 233 233 215 201 197 205 201 201 211 212
224 206 191 195 182 124 129 165 190 140 117 113 104 90 80 63 26 9 20 20 14 1 352 345 339 337 334 329 323 320 320 312 305 299 291 285 277 264 241 230 232 216 205 201 200 196 195 202 202
175 142 145 184 169 128 147 160 187 153 114 110 106 92 78 49 350 7 10 8 4 353 346 340 335 330 334 332 329 323 318 310 307 300 293 288 282 269 248 241 227 216 210 209 199 191 192 195 169
89 102 107 134 167 124 137 160 195 168 152 148 139 122 88 38 9 360 359 357 347 336 332 332 331 324 326 319 305 286 288 289 288 295 300 293 289 277 265 239 226 217 215 212 201 191 181 187 172
79 131 169 189 92 83 109 31 283 260 111 115 124 136 121 101 33 337 338 337 332 328 327 330 319 320 319 318 313 315 310 303 309 310 307 297 292 281 268 247 229 219 207 211 208 197 183 184 183
155 187 155 143 120 230 157 201 258 226 186 134 158 156 144 72 288 308 322 326 322 317 319 318 317 320 319 320 323 322 319 308 295 293 292 297 292 286 277 254 231 222 213 212 212 205 194 176 178
204 245 61 120 132 354 103 140 270 188 218 232 217 210 220 206 237 296 308 313 314 313 316 316 322 321 318 321 321 319 312 297 295 299 302 306 301 294 289 265 235 224 217 216 215 207 199 187 177
81 39 32 48 67 335 243 156 242 224 208 208 211 212 233 253 286 305 316 322 316 316 318 323 328 319 320 324 326 327 320 317 320 321 318 315 310 302 305 284 251 233 223 220 219 215 207 201 187
66 70 30 8 13 264 262 128 237 230 198 181 185 204 229 264 285 307 322 323 317 320 322 328 330 323 325 330 333 333 329 325 323 322 322 323 322 318 316 309 280 253 236 227 220 219 211 201 191
142 132 145 191 232 281 356 202 251 223 180 163 169 188 218 268 284 301 308 308 310 317 324 326 328 327 330 335 334 333 333 329 325 325 326 326 320 309 312 314 301 277 253 237 219 219 210 198 197
93 128 166 140 171 319 294 290 304 231 184 177 178 181 223 267 283 292 305 312 315 320 319 320 324 331 333 335 335 337 340 339 336 336 338 336 329 329 339 334 326 312 287 253 221 216 207 196 198
145 141 82 96 121 308 292 239 230 214 214 200 193 204 231 266 283 292 301 309 311 313 320 331 333 332 332 339 342 352 344 342 340 343 348 348 345 347 350 351 352 350 343 328 257 226 205 195 198
40 67 96 113 151 158 268 268 223 191 191 190 199 206 216 230 245 264 283 300 311 319 330 337 337 343 345 345 344 352 350 350 352 355 352 349 349 352 356 355 357 358 355 348 349 240 186 190 189
158 152 135 139 237 170 192 266 255 179 185 183 192 204 211 219 230 248 279 311 321 323 329 334 339 347 342 346 353 355 351 355 359 356 352 355 356 356 360 1 4 4 5 6 18 7 174 180 185